TimePST,TemperatureF,Dew PointF,Humidity,Sea Level PressureIn,VisibilityMPH,Wind Direction,Wind SpeedMPH,Gust SpeedMPH,PrecipitationIn,Events,Conditions,WindDirDegrees,DateUTC
12:52 AM,52.0,30.0,43,30.22,10.0,North,3.5,-,N/A,,Clear,10,2013-03-02 08:52:00
1:52 AM,54.0,28.0,37,30.21,10.0,North,6.9,-,N/A,,Clear,350,2013-03-02 09:52:00
2:52 AM,46.0,30.9,56,30.19,10.0,NW,3.5,-,N/A,,Clear,310,2013-03-02 10:52:00
3:52 AM,50.0,28.0,43,30.19,10.0,NNW,4.6,-,N/A,,Clear,340,2013-03-02 11:52:00
4:52 AM,50.0,28.9,44,30.19,10.0,NW,6.9,-,N/A,,Clear,310,2013-03-02 12:52:00
5:52 AM,45.0,30.9,58,30.20,10.0,West,4.6,-,N/A,,Clear,280,2013-03-02 13:52:00
6:52 AM,46.9,28.9,50,30.22,10.0,Calm,Calm,-,N/A,,Clear,0,2013-03-02 14:52:00
7:52 AM,59.0,30.9,35,30.23,10.0,Calm,Calm,-,N/A,,Clear,0,2013-03-02 15:52:00
8:52 AM,70.0,30.0,23,30.23,10.0,Calm,Calm,-,N/A,,Clear,0,2013-03-02 16:52:00
9:52 AM,77.0,27.0,16,30.22,10.0,North,3.5,-,N/A,,Clear,350,2013-03-02 17:52:00
10:52 AM,81.0,27.0,14,30.19,10.0,Variable,4.6,-,N/A,,Clear,0,2013-03-02 18:52:00
11:52 AM,84.0,27.0,13,30.17,10.0,ESE,9.2,-,N/A,,Clear,120,2013-03-02 19:52:00
12:52 PM,84.9,28.0,13,30.12,10.0,SSE,9.2,17.3,N/A,,Clear,150,2013-03-02 20:52:00
1:52 PM,86.0,28.0,12,30.09,10.0,SSE,9.2,17.3,N/A,,Clear,150,2013-03-02 21:52:00
2:52 PM,84.9,28.0,13,30.07,10.0,SSE,11.5,-,N/A,,Clear,160,2013-03-02 22:52:00
3:52 PM,84.0,26.1,12,30.05,10.0,SSE,8.1,-,N/A,,Clear,150,2013-03-02 23:52:00
4:52 PM,78.1,30.0,17,30.03,10.0,SSE,5.8,-,N/A,,Clear,160,2013-03-03 00:52:00
5:52 PM,71.1,32.0,24,30.03,10.0,ESE,5.8,-,N/A,,Clear,120,2013-03-03 01:52:00
6:52 PM,64.0,33.1,31,30.03,10.0,Calm,Calm,-,N/A,,Clear,0,2013-03-03 02:52:00
7:52 PM,62.1,35.1,37,30.04,10.0,North,4.6,-,N/A,,Clear,360,2013-03-03 03:52:00
8:52 PM,57.0,36.0,45,30.04,10.0,NNW,3.5,-,N/A,,Clear,340,2013-03-03 04:52:00
9:52 PM,57.9,34.0,41,30.04,10.0,North,6.9,-,N/A,,Clear,360,2013-03-03 05:52:00
10:52 PM,55.0,33.1,43,30.03,10.0,North,4.6,-,N/A,,Clear,10,2013-03-03 06:52:00
11:52 PM,55.0,34.0,45,30.01,10.0,NW,3.5,-,N/A,,Clear,320,2013-03-03 07:52:00